GW5593 Weather Reports


time (UTC)temp
C
wind
direction
speed
KPH
gust
KPH
rain 1hr
cm
rain 24hr
cm
rain mn
cm
humidity
%
barometer
mb
20260906065143 22 221 1.6 3.2 0.00 0.00 0.00 92 1015.0
20260906064643 22 331 1.6 3.2 0.00 0.00 0.00 92 1015.0
20260906064143 22 219 1.6 3.2 0.00 0.00 0.00 92 1015.0
20260906063643 22 266 0.0 1.6 0.00 0.00 0.00 92 1015.0
20260906063143 22 268 1.6 6.4 0.00 0.00 0.00 92 1015.0
20260906062643 22 360 0.0 0.0 0.00 0.00 0.00 92 1015.0
20260906062143 22 179 1.6 3.2 0.00 0.00 0.00 91 1015.0
20260906061643 23 360 0.0 0.0 0.00 0.00 0.00 91 1015.0
20260906061143 23 281 0.0 1.6 0.00 0.00 0.00 91 1015.0
20260906060643 23 253 0.0 1.6 0.00 0.00 0.00 91 1015.0
20260906060143 23 132 1.6 4.8 0.00 0.00 0.00 91 1015.0
20260906055643 23 272 0.0 1.6 0.00 0.00 0.00 91 1015.0
20260906055144 23 156 1.6 3.2 0.00 0.00 0.00 91 1015.0
20260906054643 23 94 1.6 4.8 0.00 0.00 0.00 90 1015.0
20260906054143 23 294 0.0 1.6 0.00 0.00 0.00 90 1015.0
20260906053644 23 227 1.6 4.8 0.00 0.00 0.00 90 1015.0
20260906053143 23 223 0.0 1.6 0.00 0.00 0.00 90 1015.0
20260906052643 23 172 0.0 3.2 0.00 0.00 0.00 90 1015.0
20260906052144 23 213 0.0 3.2 0.00 0.00 0.00 90 1015.0
20260906051643 23 251 0.0 1.6 0.00 0.00 0.00 89 1015.0
20260906051143 23 165 0.0 1.6 0.00 0.00 0.00 90 1015.0
20260906050643 23 151 0.0 3.2 0.00 0.00 0.00 89 1014.0
20260906050143 23 165 1.6 3.2 0.00 0.00 0.00 89 1014.0
20260906045644 23 121 1.6 3.2 0.00 0.00 0.00 89 1014.0
20260906045143 23 132 0.0 3.2 0.00 0.00 0.00 89 1014.0
20260906044643 23 159 0.0 1.6 0.00 0.00 0.00 89 1014.0
20260906044143 24 157 0.0 1.6 0.00 0.00 0.00 89 1014.0
20260906043643 24 243 1.6 3.2 0.00 0.00 0.00 89 1014.0
20260906043143 24 325 1.6 3.2 0.00 0.00 0.00 89 1014.0
20260906042643 24 308 0.0 3.2 0.00 0.00 0.00 89 1014.0
20260906042143 24 258 1.6 3.2 0.00 0.00 0.00 89 1014.0
20260906041643 24 360 0.0 0.0 0.00 0.00 0.00 89 1014.0
20260906041143 24 254 1.6 3.2 0.00 0.00 0.00 89 1014.0
20260906040643 24 214 1.6 4.8 0.00 0.00 0.00 89 1014.0
20260906040143 24 360 0.0 0.0 0.00 0.00 0.00 88 1014.0
20260906035643 24 124 0.0 1.6 0.00 0.00 0.00 88 1014.0
20260906035143 24 158 0.0 3.2 0.00 0.00 0.00 88 1014.0
20260906034643 24 282 0.0 1.6 0.00 0.00 0.00 88 1014.0
20260906034143 24 129 0.0 3.2 0.00 0.00 0.00 88 1014.0
20260906033643 24 103 3.2 4.8 0.00 0.00 0.00 87 1014.0
20260906033143 24 220 1.6 3.2 0.00 0.00 0.00 87 1014.0
20260906032643 24 133 1.6 4.8 0.00 0.00 0.00 87 1014.0
20260906032144 25 147 3.2 4.8 0.00 0.00 0.00 86 1014.0
20260906031643 25 209 0.0 1.6 0.00 0.00 0.00 86 1014.0
20260906031144 25 323 3.2 8.0 0.00 0.00 0.00 85 1014.0
20260906030643 25 48 1.6 6.4 0.00 0.00 0.00 84 1014.0
20260906030143 25 146 1.6 3.2 0.00 0.00 0.00 84 1014.0
20260906025644 25 136 1.6 3.2 0.00 0.00 0.00 83 1014.0
20260906025143 25 213 0.0 1.6 0.00 0.00 0.00 82 1014.0
20260906024643 26 163 1.6 4.8 0.00 0.00 0.00 82 1014.0
20260906024144 26 112 3.2 3.2 0.00 0.00 0.00 81 1014.0
20260906023644 26 142 1.6 4.8 0.00 0.00 0.00 80 1014.0
20260906023143 26 287 1.6 4.8 0.00 0.00 0.00 79 1014.0
20260906022643 26 2 0.0 1.6 0.00 0.00 0.00 77 1014.0
20260906022146 26 213 1.6 3.2 0.00 0.00 0.00 76 1014.0
20260906021643 26 116 1.6 3.2 0.00 0.00 0.00 76 1014.0
20260906021145 26 119 0.0 3.2 0.00 0.00 0.00 76 1014.0
20260906020643 26 137 1.6 3.2 0.00 0.00 0.00 76 1014.0
20260906020144 26 104 3.2 3.2 0.00 0.00 0.00 77 1013.0
20260906015643 26 133 0.0 3.2 0.00 0.00 0.00 78 1013.0
20260906015143 26 151 1.6 3.2 0.00 0.00 0.00 78 1013.0
20260906014643 26 360 0.0 0.0 0.00 0.00 0.00 79 1013.0
20260906014143 26 360 0.0 0.0 0.00 0.00 0.00 78 1013.0
20260906013643 26 302 0.0 0.0 0.00 0.00 0.00 78 1013.0
20260906013143 27 330 0.0 3.2 0.00 0.00 0.00 78 1013.0
20260906012643 27 360 0.0 0.0 0.00 0.00 0.00 77 1013.0
20260906012143 27 120 0.0 1.6 0.00 0.00 0.00 77 1013.0
20260906011643 27 61 0.0 0.0 0.00 0.00 0.00 76 1013.0
20260906011143 27 360 0.0 0.0 0.00 0.00 0.00 77 1013.0
20260906010644 27 107 0.0 1.6 0.00 0.00 0.00 77 1013.0
20260906010143 27 108 0.0 3.2 0.00 0.00 0.00 77 1013.0
20260906005643 28 346 0.0 1.6 0.00 0.00 0.00 76 1013.0
20260906005143 28 23 0.0 3.2 0.00 0.00 0.00 77 1013.0
20260906004644 28 312 0.0 1.6 0.00 0.00 0.00 76 1012.0
20260906004145 28 349 0.0 1.6 0.00 0.00 0.00 76 1012.0
20260906003643 28 271 0.0 0.0 0.00 0.00 0.00 76 1012.0
20260906003143 28 316 0.0 1.6 0.00 0.00 0.00 75 1012.0
20260906002643 28 311 1.6 1.6 0.00 0.00 0.00 74 1012.0
20260906002144 29 331 0.0 1.6 0.00 0.00 0.00 74 1012.0
20260906001644 29 312 0.0 1.6 0.00 0.00 0.00 74 1012.0
20260906001144 29 283 0.0 0.0 0.00 0.00 0.00 74 1012.0
20260906000643 30 16 0.0 3.2 0.00 0.00 0.00 73 1012.0
20260906000143 30 360 0.0 0.0 0.00 0.00 0.00 72 1012.0
20260905235643 30 327 0.0 1.6 0.00 0.00 0.00 71 1012.0
20260905235143 31 337 1.6 3.2 0.00 0.00 0.00 70 1012.0
20260905234644 31 353 1.6 3.2 0.00 0.00 0.00 69 1012.0
20260905234143 31 360 0.0 3.2 0.00 0.00 0.00 67 1012.0
20260905233643 32 10 1.6 3.2 0.00 0.00 0.00 66 1012.0
20260905233144 32 6 0.0 1.6 0.00 0.00 0.00 66 1012.0
20260905232643 32 342 3.2 3.2 0.00 0.00 0.00 65 1012.0
20260905232143 32 5 3.2 3.2 0.00 0.00 0.00 65 1012.0
20260905231643 32 354 1.6 1.6 0.00 0.00 0.00 65 1012.0
20260905231143 32 40 0.0 1.6 0.00 0.00 0.00 66 1012.0
20260905230643 31 8 1.6 3.2 0.00 0.00 0.00 66 1013.0
20260905230143 31 14 1.6 4.8 0.00 0.00 0.00 66 1012.0
20260905225643 31 346 3.2 6.4 0.00 0.00 0.00 65 1012.0
20260905225144 31 321 3.2 4.8 0.00 0.00 0.00 65 1012.0
20260905224643 31 353 3.2 6.4 0.00 0.00 0.00 66 1012.0
20260905224144 31 281 1.6 3.2 0.00 0.00 0.00 65 1012.0
20260905223643 31 6 1.6 3.2 0.00 0.00 0.00 65 1012.0
20260905223143 31 16 0.0 3.2 0.00 0.00 0.00 64 1012.0
20260905222643 31 343 3.2 4.8 0.00 0.00 0.00 63 1012.0
20260905222143 31 353 0.0 1.6 0.00 0.00 0.00 64 1012.0
20260905221643 31 276 1.6 6.4 0.00 0.00 0.00 63 1012.0
20260905221143 31 30 0.0 1.6 0.00 0.00 0.00 63 1012.0
20260905220643 31 309 0.0 1.6 0.00 0.00 0.00 63 1012.0
20260905220143 31 330 1.6 3.2 0.00 0.00 0.00 62 1012.0
20260905215643 32 355 0.0 1.6 0.00 0.00 0.00 62 1012.0
20260905215143 32 282 0.0 1.6 0.00 0.00 0.00 61 1012.0
20260905214643 32 328 0.0 1.6 0.00 0.00 0.00 61 1012.0
20260905214147 32 19 0.0 1.6 0.00 0.00 0.00 60 1012.0
20260905213643 32 337 0.0 1.6 0.00 0.00 0.00 59 1012.0
20260905213143 33 340 1.6 3.2 0.00 0.00 0.00 58 1012.0
20260905212643 33 360 1.6 1.6 0.00 0.00 0.00 58 1012.0
20260905212143 33 324 0.0 3.2 0.00 0.00 0.00 57 1012.0
20260905211643 34 316 0.0 3.2 0.00 0.00 0.00 56 1012.0
20260905211143 34 324 0.0 1.6 0.00 0.00 0.00 55 1012.0
20260905210644 35 329 1.6 3.2 0.00 0.00 0.00 53 1012.0
20260905210144 35 1 1.6 4.8 0.00 0.00 0.00 53 1012.0
20260905205643 35 347 3.2 3.2 0.00 0.00 0.00 52 1012.0
20260905205143 35 340 1.6 3.2 0.00 0.00 0.00 52 1012.0
20260905204643 35 337 1.6 3.2 0.00 0.00 0.00 53 1012.0
20260905204143 35 360 3.2 4.8 0.00 0.00 0.00 53 1012.0
20260905203643 35 350 1.6 3.2 0.00 0.00 0.00 52 1013.0
20260905203143 36 344 1.6 3.2 0.00 0.00 0.00 50 1013.0
20260905202643 36 357 3.2 4.8 0.00 0.00 0.00 52 1013.0
20260905202143 36 359 3.2 8.0 0.00 0.00 0.00 51 1013.0
20260905201644 36 350 4.8 9.7 0.00 0.00 0.00 50 1013.0
20260905201143 35 325 4.8 6.4 0.00 0.00 0.00 52 1013.0
20260905200644 35 347 3.2 6.4 0.00 0.00 0.00 54 1013.0
20260905200143 35 2 1.6 3.2 0.00 0.00 0.00 53 1013.0
20260905195643 35 357 3.2 4.8 0.00 0.00 0.00 51 1013.0
20260905195143 35 7 4.8 6.4 0.00 0.00 0.00 53 1013.0
20260905194643 35 67 3.2 4.8 0.00 0.00 0.00 53 1013.0
20260905194143 35 301 3.2 4.8 0.00 0.00 0.00 52 1013.0
20260905193643 35 336 3.2 9.7 0.00 0.00 0.00 53 1013.0
20260905193143 35 330 3.2 6.4 0.00 0.00 0.00 51 1013.0
20260905192644 35 27 3.2 4.8 0.00 0.00 0.00 50 1013.0
20260905192143 35 306 3.2 4.8 0.00 0.00 0.00 51 1013.0
20260905191643 35 327 3.2 4.8 0.00 0.00 0.00 51 1013.0
20260905191143 35 332 3.2 4.8 0.00 0.00 0.00 51 1013.0
20260905190643 35 314 3.2 4.8 0.00 0.00 0.00 52 1013.0
20260905190144 35 300 3.2 6.4 0.00 0.00 0.00 51 1013.0
20260905185643 35 29 1.6 4.8 0.00 0.00 0.00 50 1013.0
20260905185143 34 350 1.6 3.2 0.00 0.00 0.00 52 1013.0
20260905184643 34 328 3.2 4.8 0.00 0.00 0.00 53 1014.0
20260905184143 33 8 3.2 3.2 0.00 0.00 0.00 52 1014.0
20260905183643 33 321 3.2 4.8 0.00 0.00 0.00 53 1014.0
20260905183143 33 346 3.2 4.8 0.00 0.00 0.00 51 1014.0
20260905182644 33 315 3.2 4.8 0.00 0.00 0.00 53 1014.0
20260905182143 33 124 3.2 6.4 0.00 0.00 0.00 54 1014.0
20260905181643 33 314 3.2 6.4 0.00 0.00 0.00 55 1014.0
20260905181143 34 173 3.2 4.8 0.00 0.00 0.00 52 1014.0
20260905180644 33 329 3.2 6.4 0.00 0.00 0.00 52 1014.0
20260905180143 33 322 3.2 4.8 0.00 0.00 0.00 51 1014.0
20260905175644 33 68 1.6 3.2 0.00 0.00 0.00 53 1014.0
20260905175143 33 286 3.2 4.8 0.00 0.00 0.00 54 1014.0
20260905174643 33 228 3.2 6.4 0.00 0.00 0.00 52 1014.0
20260905174143 32 51 1.6 3.2 0.00 0.00 0.00 55 1014.0
20260905173643 32 72 3.2 4.8 0.00 0.00 0.00 54 1014.0
20260905173143 32 104 1.6 6.4 0.00 0.00 0.00 55 1014.0
20260905172643 32 263 1.6 3.2 0.00 0.00 0.00 54 1014.0
20260905172144 32 235 3.2 4.8 0.00 0.00 0.00 54 1014.0
20260905171644 32 237 3.2 6.4 0.00 0.00 0.00 54 1014.0
20260905171143 32 322 1.6 4.8 0.00 0.00 0.00 54 1014.0
20260905170644 31 200 3.2 8.0 0.00 0.00 0.00 54 1014.0
20260905170144 31 207 3.2 6.4 0.00 0.00 0.00 54 1015.0
20260905165643 31 82 3.2 4.8 0.00 0.00 0.00 55 1015.0
20260905165143 31 286 1.6 3.2 0.00 0.00 0.00 55 1015.0
20260905164643 31 244 1.6 3.2 0.00 0.00 0.00 54 1015.0
20260905164143 31 87 1.6 3.2 0.00 0.00 0.00 56 1015.0
20260905163643 30 221 3.2 4.8 0.00 0.00 0.00 57 1015.0
20260905163143 30 122 4.8 6.4 0.00 0.00 0.00 56 1015.0
20260905162657 30 112 3.2 6.4 0.00 0.00 0.00 55 1015.0
20260905162143 30 121 1.6 3.2 0.00 0.00 0.00 56 1015.0
20260905161643 30 196 3.2 6.4 0.00 0.00 0.00 57 1015.0
20260905161143 30 105 4.8 8.0 0.00 0.00 0.00 56 1015.0
20260905160644 30 101 6.4 8.0 0.00 0.00 0.00 56 1015.0
20260905160143 29 219 1.6 4.8 0.00 0.00 0.00 58 1015.0
20260905155643 29 130 1.6 6.4 0.00 0.00 0.00 61 1015.0
20260905155143 29 113 6.4 9.7 0.00 0.00 0.00 58 1015.0
20260905154643 29 125 4.8 9.7 0.00 0.00 0.00 58 1015.0
20260905154143 29 121 3.2 8.0 0.00 0.00 0.00 59 1015.0
20260905153644 28 168 1.6 6.4 0.00 0.00 0.00 59 1015.0
20260905153143 28 136 4.8 9.7 0.00 0.00 0.00 60 1015.0
20260905152643 28 108 4.8 9.7 0.00 0.00 0.00 60 1015.0
20260905152143 28 132 4.8 8.0 0.00 0.00 0.00 62 1015.0
20260905151644 27 156 6.4 11.3 0.00 0.00 0.00 62 1015.0
20260905151143 27 125 6.4 8.0 0.00 0.00 0.00 62 1015.0
20260905150643 27 149 4.8 9.7 0.00 0.00 0.00 62 1015.0
20260905150143 27 125 4.8 8.0 0.00 0.00 0.00 62 1015.0
20260905145643 27 105 4.8 8.0 0.00 0.00 0.00 63 1015.0
20260905145143 27 128 6.4 9.7 0.00 0.00 0.00 63 1015.0
20260905144644 27 142 6.4 14.5 0.00 0.00 0.00 63 1015.0
20260905144143 26 129 6.4 16.1 0.00 0.00 0.00 64 1015.0
20260905143644 26 129 6.4 11.3 0.00 0.00 0.00 65 1015.0
20260905143148 26 116 6.4 9.7 0.00 0.00 0.00 65 1015.0
20260905142643 26 124 6.4 9.7 0.00 0.00 0.00 66 1015.0
20260905142144 26 140 4.8 8.0 0.00 0.00 0.00 66 1015.0
20260905141643 26 111 6.4 9.7 0.00 0.00 0.00 67 1015.0
20260905141145 26 108 6.4 11.3 0.00 0.00 0.00 68 1015.0
20260905140643 26 127 4.8 11.3 0.00 0.00 0.00 69 1015.0
20260905140143 25 130 8.0 11.3 0.00 0.00 0.00 68 1015.0
20260905135643 25 123 4.8 9.7 0.00 0.00 0.00 70 1015.0
20260905135143 25 99 4.8 9.7 0.00 0.00 0.00 70 1015.0
20260905134646 25 115 4.8 8.0 0.00 0.00 0.00 70 1015.0
20260905134143 25 115 3.2 9.7 0.00 0.00 0.00 72 1016.0
20260905133643 25 96 6.4 9.7 0.00 0.00 0.00 71 1015.0
20260905133144 25 150 4.8 8.0 0.00 0.00 0.00 72 1015.0
20260905132643 24 104 4.8 12.9 0.00 0.00 0.00 74 1015.0
20260905132144 24 134 4.8 9.7 0.00 0.00 0.00 73 1015.0
20260905131643 24 147 4.8 9.7 0.00 0.00 0.00 74 1016.0
20260905131143 24 84 3.2 8.0 0.00 0.00 0.00 74 1016.0
20260905130644 24 98 3.2 6.4 0.00 0.00 0.00 74 1016.0
20260905130148 24 161 3.2 6.4 0.00 0.00 0.00 75 1016.0
20260905125643 23 162 0.0 3.2 0.00 0.00 0.00 76 1016.0
20260905125143 23 129 3.2 6.4 0.00 0.00 0.00 77 1016.0
20260905124643 23 134 3.2 3.2 0.00 0.00 0.00 78 1016.0
20260905124143 23 81 1.6 3.2 0.00 0.00 0.00 80 1016.0
20260905123643 22 144 3.2 6.4 0.00 0.00 0.00 81 1016.0
20260905123143 22 106 0.0 3.2 0.00 0.00 0.00 81 1016.0
20260905122643 22 73 3.2 8.0 0.00 0.00 0.00 81 1016.0
20260905122143 22 132 3.2 4.8 0.00 0.00 0.00 81 1016.0
20260905121643 22 124 3.2 6.4 0.00 0.00 0.00 81 1016.0
20260905121143 22 167 0.0 1.6 0.00 0.00 0.00 82 1016.0
20260905120644 22 128 1.6 6.4 0.00 0.00 0.00 82 1016.0
20260905120143 22 349 1.6 3.2 0.00 0.00 0.00 83 1016.0
20260905115643 22 145 0.0 3.2 0.00 0.00 0.00 82 1016.0
20260905115143 22 149 1.6 3.2 0.00 0.00 0.00 84 1016.0
20260905114644 22 144 1.6 3.2 0.00 0.00 0.00 83 1015.0
20260905114144 22 60 3.2 4.8 0.00 0.00 0.00 83 1015.0
20260905113644 22 97 3.2 8.0 0.00 0.00 0.00 83 1015.0
20260905113143 22 97 4.8 9.7 0.00 0.00 0.00 85 1015.0
20260905112643 23 116 1.6 6.4 0.00 0.00 0.00 87 1015.0
20260905112143 23 295 1.6 4.8 0.00 0.00 0.00 86 1015.0
20260905111643 23 114 3.2 6.4 0.00 0.00 0.00 88 1015.0
20260905111144 23 92 4.8 9.7 0.00 0.00 0.00 93 1015.0
20260905110643 23 328 0.0 3.2 0.00 0.00 0.00 94 1014.0
20260905110144 23 360 0.0 0.0 0.00 0.00 0.00 94 1014.0
20260905105643 23 360 0.0 0.0 0.00 0.00 0.00 94 1014.0
20260905105143 23 360 0.0 0.0 0.00 0.00 0.00 94 1014.0
20260905104645 23 360 0.0 0.0 0.00 0.00 0.00 93 1014.0
20260905104143 23 360 0.0 0.0 0.00 0.00 0.00 93 1014.0
20260905103644 23 360 0.0 0.0 0.00 0.00 0.00 93 1014.0
20260905103143 23 360 0.0 0.0 0.00 0.00 0.00 93 1014.0
20260905102643 23 360 0.0 0.0 0.00 0.00 0.00 93 1014.0
20260905102143 23 360 0.0 0.0 0.00 0.00 0.00 92 1014.0
20260905101643 23 360 0.0 0.0 0.00 0.00 0.00 92 1014.0
20260905101144 23 360 0.0 0.0 0.00 0.00 0.00 91 1014.0
20260905100643 23 360 0.0 0.0 0.00 0.00 0.00 91 1014.0
20260905100143 23 360 0.0 0.0 0.00 0.00 0.00 91 1014.0
20260905095643 23 360 0.0 0.0 0.00 0.00 0.00 91 1014.0
20260905095144 23 360 0.0 0.0 0.00 0.00 0.00 91 1014.0
20260905094644 24 360 0.0 0.0 0.00 0.00 0.00 92 1014.0
20260905094143 24 360 0.0 0.0 0.00 0.00 0.00 91 1014.0
20260905093643 24 360 0.0 0.0 0.00 0.00 0.00 91 1014.0
20260905093143 24 360 0.0 0.0 0.00 0.00 0.00 91 1014.0
20260905092643 24 210 0.0 1.6 0.00 0.00 0.00 91 1014.0
20260905092143 24 220 0.0 1.6 0.00 0.00 0.00 90 1014.0
20260905091643 24 308 0.0 0.0 0.00 0.00 0.00 90 1014.0
20260905091144 24 360 0.0 0.0 0.00 0.00 0.00 89 1014.0
20260905090643 24 360 0.0 0.0 0.00 0.00 0.00 89 1014.0
20260905090143 25 360 0.0 0.0 0.00 0.00 0.00 88 1014.0
20260905085644 25 360 0.0 0.0 0.00 0.00 0.00 88 1014.0
20260905085144 25 297 0.0 1.6 0.00 0.00 0.00 88 1014.0
20260905084643 25 360 0.0 0.0 0.00 0.00 0.00 88 1014.0
20260905084143 25 323 0.0 0.0 0.00 0.00 0.00 88 1014.0
20260905083644 25 316 0.0 1.6 0.00 0.00 0.00 87 1013.0
20260905083143 25 266 0.0 0.0 0.00 0.00 0.00 87 1013.0
20260905082643 25 360 0.0 0.0 0.00 0.00 0.00 88 1013.0
20260905082143 25 360 0.0 0.0 0.00 0.00 0.00 87 1013.0
20260905081644 25 360 0.0 0.0 0.00 0.00 0.00 88 1013.0
20260905081144 25 260 0.0 1.6 0.00 0.00 0.00 87 1013.0
20260905080643 25 259 0.0 1.6 0.00 0.00 0.00 87 1013.0
20260905080143 25 360 0.0 0.0 0.00 0.00 0.00 88 1013.0
20260905075643 25 360 0.0 0.0 0.00 0.00 0.00 88 1013.0
20260905075143 25 360 0.0 0.0 0.00 0.00 0.00 88 1013.0
20260905074644 25 292 0.0 1.6 0.00 0.00 0.00 88 1013.0
20260905074145 25 195 0.0 3.2 0.00 0.00 0.00 88 1013.0
20260905073643 24 218 0.0 1.6 0.00 0.00 0.00 89 1013.0
20260905073143 24 360 0.0 0.0 0.00 0.00 0.00 90 1013.0
20260905072643 24 320 0.0 1.6 0.00 0.00 0.00 91 1013.0
20260905072143 24 301 0.0 1.6 0.00 0.00 0.00 92 1013.0
20260905071643 24 360 0.0 0.0 0.00 0.00 0.00 92 1013.0
20260905071143 24 360 0.0 0.0 0.00 0.00 0.00 92 1013.0
20260905070644 24 293 0.0 1.6 0.00 0.00 0.00 92 1013.0
20260905070143 24 360 0.0 0.0 0.00 0.00 0.00 92 1013.0
20260905065643 24 360 0.0 0.0 0.00 0.00 0.00 92 1013.0